• In Uzbekistan
  • List of Countries
  • For 7 days
  • Water Temperature
  • Satellite Maps
  • Weather Map
  • Weather Widgets
  • user-avatar
    Login

    Hourly Weather Zonguldak

    Today, 18 December, Monday

    Time Temperature Precipitation Wind Pressure Humidity
    00:00 +14°C° 0.2 mm 5 mps 745 mmHg 71%
    01:00 +14°C° 0.2 mm 5 mps 745 mmHg 74%
    02:00 +14°C° 0 mm 5 mps 746 mmHg 73%
    03:00 +13°C° 0.4 mm 5 mps 746 mmHg 79%
    04:00 +13°C° 0.4 mm 4 mps 747 mmHg 86%
    05:00 +12°C° 0.4 mm 4 mps 747 mmHg 93%
    06:00 +12°C° 0.5 mm 4 mps 748 mmHg 93%
    07:00 +11°C° 0.5 mm 4 mps 748 mmHg 93%
    08:00 +11°C° 0.5 mm 4 mps 748 mmHg 94%
    09:00 +10°C° 0.3 mm 3 mps 749 mmHg 93%
    10:00 +10°C° 0.3 mm 3 mps 749 mmHg 93%
    11:00 +10°C° 0.3 mm 3 mps 750 mmHg 92%
    12:00 +10°C° 0.2 mm 3 mps 749 mmHg 92%
    13:00 +10°C° 0.2 mm 3 mps 749 mmHg 92%
    14:00 +9°C° 0.2 mm 2 mps 749 mmHg 91%
    15:00 +9°C° 0.1 mm 2 mps 749 mmHg 91%
    16:00 +9°C° 0.1 mm 3 mps 749 mmHg 91%
    17:00 +9°C° 0.1 mm 3 mps 749 mmHg 92%
    18:00 +9°C° 0.2 mm 3 mps 749 mmHg 92%
    19:00 +8°C° 0.2 mm 3 mps 749 mmHg 92%
    20:00 +8°C° 0.2 mm 3 mps 749 mmHg 92%
    21:00 +8°C° 0.1 mm 3 mps 749 mmHg 92%
    22:00 +8°C° 0.1 mm 3 mps 749 mmHg 92%
    23:00 +7°C° 0.1 mm 4 mps 750 mmHg 92%

    Tomorrow, 19 December, Tuesday

    Time Temperature Precipitation Wind Pressure Humidity
    00:00 +7°C° 0.1 mm 4 mps 750 mmHg 92%
    01:00 +7°C° 0.1 mm 4 mps 749 mmHg 92%
    02:00 +6°C° 0.1 mm 4 mps 749 mmHg 91%
    03:00 +7°C° 0.4 mm 4 mps 749 mmHg 90%
    04:00 +7°C° 0.4 mm 4 mps 749 mmHg 89%
    05:00 +7°C° 0.4 mm 5 mps 749 mmHg 88%
    06:00 +7°C° 0.2 mm 4 mps 750 mmHg 87%
    07:00 +7°C° 0.2 mm 4 mps 750 mmHg 86%
    08:00 +7°C° 0.2 mm 4 mps 750 mmHg 85%
    09:00 +10°C° 0 mm 4 mps 751 mmHg 79%
    10:00 +11°C° 0 mm 3 mps 751 mmHg 73%
    11:00 +13°C° 0 mm 3 mps 751 mmHg 67%
    12:00 +13°C° 0.1 mm 3 mps 752 mmHg 67%
    13:00 +13°C° 0.1 mm 4 mps 752 mmHg 68%
    14:00 +12°C° 0.1 mm 4 mps 752 mmHg 68%
    15:00 +11°C° 0.1 mm 4 mps 752 mmHg 73%
    16:00 +10°C° 0.1 mm 4 mps 753 mmHg 78%
    17:00 +8°C° 0.1 mm 5 mps 753 mmHg 83%
    18:00 +8°C° 0.2 mm 5 mps 754 mmHg 85%
    19:00 +7°C° 0.2 mm 5 mps 754 mmHg 87%
    20:00 +7°C° 0.2 mm 5 mps 755 mmHg 89%
    21:00 +7°C° 0.2 mm 4 mps 755 mmHg 90%
    22:00 +7°C° 0.2 mm 4 mps 756 mmHg 90%
    23:00 +6°C° 0.2 mm 4 mps 756 mmHg 91%

    Day after tomorrow, 20 December, Wednesday

    Time Temperature Precipitation Wind Pressure Humidity
    00:00 +6°C° 0.2 mm 4 mps 756 mmHg 92%
    01:00 +6°C° 0.2 mm 4 mps 756 mmHg 92%
    02:00 +7°C° 0.2 mm 3 mps 756 mmHg 93%
    03:00 +6°C° 0.1 mm 4 mps 756 mmHg 92%
    04:00 +6°C° 0.1 mm 4 mps 756 mmHg 92%
    05:00 +6°C° 0.1 mm 4 mps 756 mmHg 92%
    06:00 +6°C° 0.1 mm 4 mps 756 mmHg 91%
    07:00 +6°C° 0.1 mm 4 mps 756 mmHg 91%
    08:00 +6°C° 0.1 mm 4 mps 756 mmHg 91%
    09:00 +6°C° 0.1 mm 4 mps 756 mmHg 89%
    10:00 +6°C° 0.1 mm 5 mps 756 mmHg 87%
    11:00 +6°C° 0.1 mm 5 mps 756 mmHg 85%
    12:00 +6°C° 0 mm 5 mps 756 mmHg 85%
    13:00 +6°C° 0 mm 5 mps 756 mmHg 86%
    14:00 +6°C° 0 mm 5 mps 756 mmHg 86%
    15:00 +6°C° 0.1 mm 5 mps 756 mmHg 87%
    16:00 +6°C° 0.1 mm 5 mps 756 mmHg 89%
    17:00 +5°C° 0.1 mm 5 mps 756 mmHg 90%
    18:00 +5°C° 0.1 mm 5 mps 756 mmHg 91%
    19:00 +5°C° 0.1 mm 4 mps 756 mmHg 91%
    20:00 +5°C° 0.1 mm 4 mps 757 mmHg 91%
    21:00 +5°C° 0.1 mm 4 mps 757 mmHg 91%
    22:00 +5°C° 0.1 mm 4 mps 757 mmHg 92%
    23:00 +5°C° 0.1 mm 4 mps 757 mmHg 92%

    21 December, Thursday

    Time Temperature Precipitation Wind Pressure Humidity
    00:00 +5°C° 0 mm 4 mps 757 mmHg 92%
    01:00 +5°C° 0 mm 4 mps 758 mmHg 92%
    02:00 +5°C° 0 mm 4 mps 758 mmHg 93%
    03:00 +5°C° 0 mm 4 mps 758 mmHg 92%
    04:00 +5°C° 0 mm 4 mps 758 mmHg 92%
    05:00 +4°C° 0 mm 4 mps 757 mmHg 92%
    06:00 +5°C° 0 mm 4 mps 758 mmHg 91%
    07:00 +5°C° 0 mm 4 mps 758 mmHg 91%
    08:00 +5°C° 0 mm 5 mps 758 mmHg 90%
    09:00 +5°C° 0 mm 5 mps 758 mmHg 87%
    10:00 +6°C° 0 mm 5 mps 758 mmHg 84%
    11:00 +6°C° 0 mm 5 mps 758 mmHg 81%
    12:00 +6°C° 0.1 mm 5 mps 757 mmHg 82%
    13:00 +6°C° 0.1 mm 5 mps 757 mmHg 83%
    14:00 +6°C° 0.1 mm 5 mps 757 mmHg 84%
    15:00 +6°C° 0.1 mm 5 mps 756 mmHg 87%
    16:00 +6°C° 0.1 mm 4 mps 756 mmHg 89%
    17:00 +5°C° 0.1 mm 4 mps 756 mmHg 92%
    18:00 +5°C° 0 mm 4 mps 756 mmHg 92%
    19:00 +5°C° 0 mm 4 mps 756 mmHg 92%
    20:00 +5°C° 0 mm 3 mps 756 mmHg 93%
    21:00 +5°C° 0 mm 3 mps 756 mmHg 93%
    22:00 +5°C° 0 mm 3 mps 756 mmHg 93%
    23:00 +5°C° 0 mm 3 mps 756 mmHg 93%

    22 December, Friday

    Time Temperature Precipitation Wind Pressure Humidity
    00:00 +5°C° 0.1 mm 3 mps 755 mmHg 93%
    01:00 +5°C° 0.1 mm 3 mps 755 mmHg 92%
    02:00 +5°C° 0.1 mm 3 mps 755 mmHg 92%
    03:00 +5°C° 0.2 mm 3 mps 755 mmHg 91%
    04:00 +5°C° 0.2 mm 4 mps 754 mmHg 91%
    05:00 +4°C° 0.2 mm 4 mps 754 mmHg 90%
    06:00 +4°C° 0.2 mm 3 mps 755 mmHg 88%
    07:00 +4°C° 0.2 mm 3 mps 755 mmHg 87%
    08:00 +5°C° 0.2 mm 2 mps 755 mmHg 85%
    09:00 +6°C° 0.1 mm 2 mps 755 mmHg 79%
    10:00 +6°C° 0.1 mm 2 mps 755 mmHg 74%
    11:00 +8°C° 0.1 mm 1 mps 755 mmHg 68%
    12:00 +7°C° 0.1 mm 2 mps 755 mmHg 69%
    13:00 +7°C° 0.1 mm 3 mps 755 mmHg 70%
    14:00 +7°C° 0.1 mm 3 mps 754 mmHg 71%
    15:00 +5°C° 0 mm 3 mps 754 mmHg 76%
    16:00 +4°C° 0 mm 3 mps 754 mmHg 81%
    17:00 +4°C° 0 mm 3 mps 754 mmHg 86%
    18:00 +3°C° 0 mm 3 mps 754 mmHg 86%
    19:00 +3°C° 0 mm 3 mps 754 mmHg 86%
    20:00 +2°C° 0 mm 3 mps 754 mmHg 87%
    21:00 +1°C° 0 mm 4 mps 754 mmHg 85%
    22:00 +1°C° 0 mm 4 mps 754 mmHg 84%
    23:00 +1°C° 0 mm 4 mps 753 mmHg 83%

    23 December, Saturday

    Time Temperature Precipitation Wind Pressure Humidity
    00:00 +1°C° 0 mm 4 mps 753 mmHg 83%
    01:00 +1°C° 0 mm 4 mps 753 mmHg 83%
    02:00 0°C° 0 mm 4 mps 753 mmHg 83%
    03:00 +1°C° 0.1 mm 4 mps 753 mmHg 82%
    04:00 +1°C° 0.1 mm 4 mps 752 mmHg 81%
    05:00 +1°C° 0.1 mm 5 mps 752 mmHg 80%
    06:00 +1°C° 0.2 mm 4 mps 752 mmHg 78%
    07:00 +1°C° 0.2 mm 4 mps 752 mmHg 75%
    08:00 +1°C° 0.2 mm 4 mps 752 mmHg 73%
    09:00 +4°C° 0.2 mm 4 mps 752 mmHg 71%
    10:00 +5°C° 0.2 mm 4 mps 752 mmHg 68%
    11:00 +7°C° 0.2 mm 3 mps 752 mmHg 66%
    12:00 +7°C° 0.1 mm 3 mps 751 mmHg 69%
    13:00 +7°C° 0.1 mm 3 mps 751 mmHg 72%
    14:00 +7°C° 0.1 mm 2 mps 750 mmHg 75%
    15:00 +6°C° 0.1 mm 2 mps 750 mmHg 80%
    16:00 +6°C° 0.1 mm 2 mps 750 mmHg 85%
    17:00 +5°C° 0.1 mm 2 mps 750 mmHg 90%
    18:00 +5°C° 0.1 mm 2 mps 750 mmHg 90%
    19:00 +5°C° 0.1 mm 2 mps 750 mmHg 91%
    20:00 +5°C° 0.1 mm 2 mps 750 mmHg 91%
    21:00 +4°C° 0.1 mm 2 mps 750 mmHg 91%
    22:00 +3°C° 0.1 mm 3 mps 750 mmHg 91%
    23:00 +3°C° 0.1 mm 3 mps 750 mmHg 91%
    Show more